Weather History for Anchorage, AK

Change the Weather History Date:

Sunday, September 2, 2012

  Actual Average Record
Temperature  
Mean Temperature 52 °F 53 °F  
Max Temperature 56 °F 60 °F 70 °F (1963)
Min Temperature 47 °F 46 °F 21 °F (1922)
Degree Days  
Heating Degree Days 13    
Month to date heating degree days 28  
Since 1 July heating degree days 590  
Cooling Degree Days 0    
Month to date cooling degree days 0  
Year to date cooling degree days 0  
Growing Degree Days 2 (Base 50)    
Moisture  
Dew Point 43 °F    
Average Humidity 70    
Maximum Humidity 93    
Minimum Humidity 47    
Precipitation  
Precipitation 0.01 in 0.10 in 0.99 in (1940)
Month to date precipitation 0.41 0.21  
Year to date precipitation 10.64 9.50  
Snow  
Snow 0.00 in 0.00 in 0.00 in ()
Month to date snowfall 0.0 0.0  
Since 1 June snowfall 0.0  
Since 1 July snowfall 0.0 0.0  
Since 1 September snowfall 0.0  
Snow Depth 0.00 in    
Sea Level Pressure  
Sea Level Pressure 29.71 in    
Wind  
Wind Speed 12 mph (SSE)    
Max Wind Speed 18 mph    
Max Gust Speed 35 mph    
Visibility 10 miles    
Events Rain    
T = Trace of Precipitation, MM = Missing Value Source: NWS Daily Summary

Daily Weather History Graph

Daily Weather History Graph

Search for Another Location

Airport:

Trip Planner

Search our weather history database for the weather conditions in past years. The results will help you decide how hot, cold, wet, or windy it might be!

Date:

Astronomy

Sep. 02, 2012 Rise Set
Actual Time 6:56 AM AKDT 9:01 PM AKDT
Civil Twilight 6:09 AM AKDT 9:47 PM AKDT
Nautical Twilight 5:08 AM AKDT 10:47 PM AKDT
Astronomical Twilight 3:47 AM AKDT 12:06 AM AKDT
Moon 8:48 PM AKDT (9/2) 10:13 AM AKDT (9/2)
Length of Visible Light 15h 37m
Length of Day
14h 05m
Waning Gibbous, 95% of the Moon is Illuminated
Sep 2
Waning Gibbous
Sep 8
Last Quarter
Sep 15
New
Sep 22
First Quarter
Sep 29
Full

Hourly Weather History & Observations

Time (AKDT) Temp. Dew Point Humidity Pressure Visibility Wind Dir Wind Speed Gust Speed Precip Events Conditions
12:53 AM 51.1 °F 46.0 °F 83% 29.69 in 10.0 mi SSE 8.1 mph - 0.00 in   Overcast
1:53 AM 50.0 °F 46.0 °F 86% 29.70 in 10.0 mi SSE 9.2 mph - N/A   Overcast
2:53 AM 50.0 °F 45.0 °F 83% 29.71 in 10.0 mi South 9.2 mph - N/A   Overcast
3:53 AM 51.1 °F 44.1 °F 77% 29.71 in 10.0 mi South 10.4 mph 21.9 mph N/A   Overcast
4:53 AM 51.1 °F 43.0 °F 74% 29.73 in 10.0 mi SSE 10.4 mph 25.3 mph N/A   Overcast
5:53 AM 50.0 °F 44.1 °F 80% 29.73 in 10.0 mi SE 5.8 mph - 0.00 in Rain Light Rain
6:53 AM 48.9 °F 45.0 °F 86% 29.74 in 10.0 mi SSE 3.5 mph - 0.00 in   Mostly Cloudy
7:53 AM 48.9 °F 46.0 °F 90% 29.74 in 10.0 mi Calm Calm - N/A   Mostly Cloudy
8:53 AM 52.0 °F 44.1 °F 74% 29.75 in 10.0 mi SE 11.5 mph 20.7 mph N/A   Mostly Cloudy
9:53 AM 54.0 °F 43.0 °F 66% 29.74 in 10.0 mi SE 18.4 mph 29.9 mph N/A   Mostly Cloudy
10:53 AM 55.4 °F 41.0 °F 58% 29.74 in 10.0 mi SSE 17.3 mph 29.9 mph N/A   Mostly Cloudy
11:53 AM 57.0 °F 37.0 °F 47% 29.74 in 10.0 mi SSE 15.0 mph 31.1 mph N/A   Mostly Cloudy
12:53 PM 55.9 °F 39.0 °F 53% 29.74 in 10.0 mi SSE 18.4 mph 26.5 mph N/A   Mostly Cloudy
1:53 PM 55.0 °F 39.9 °F 57% 29.75 in 10.0 mi SE 17.3 mph 26.5 mph 0.00 in Rain Light Rain
2:53 PM 55.0 °F 39.0 °F 55% 29.75 in 10.0 mi SE 16.1 mph 24.2 mph 0.00 in Rain Light Rain
3:53 PM 55.0 °F 41.0 °F 59% 29.73 in 10.0 mi ESE 13.8 mph 18.4 mph 0.00 in Rain Light Rain
4:53 PM 55.0 °F 39.9 °F 57% 29.71 in 10.0 mi SSE 8.1 mph - 0.00 in Rain Light Rain
5:53 PM 54.0 °F 39.9 °F 59% 29.70 in 10.0 mi SSE 6.9 mph - 0.00 in   Overcast
6:53 PM 53.1 °F 45.0 °F 74% 29.68 in 10.0 mi NNW 10.4 mph - 0.00 in   Overcast
7:53 PM 53.1 °F 44.1 °F 71% 29.66 in 10.0 mi Variable 4.6 mph - 0.00 in Rain Light Rain
8:53 PM 53.1 °F 41.0 °F 64% 29.65 in 10.0 mi Variable 3.5 mph - 0.00 in Rain Light Rain
9:53 PM 51.1 °F 46.9 °F 86% 29.65 in 10.0 mi NNW 8.1 mph - 0.00 in Rain Light Rain
10:53 PM 50.0 °F 46.0 °F 86% 29.64 in 10.0 mi NNW 10.4 mph 16.1 mph 0.00 in Rain Light Rain
11:53 PM 50.0 °F 46.9 °F 89% 29.63 in 10.0 mi NW 8.1 mph - 0.00 in   Overcast